Voltar ao catálogo

GALILEO 5 (261)

AtivoNavegaçãoMEO
NORAD 40128·PAYLOAD·🇪🇺 EU

Lançado Aug 22, 2014 de Guiana Space Centre

Loading…

Próximas Passagens (próximas 24 horas)

TLE

AtualizadoSource: CelesTrak SupGP

Época: Sep 13, 2026, 23:59 UTC

1 40128C 14050A   26256.99979167  .00000000  00000+0  00000+0 0  2567
2 40128  48.7822 269.7847 1686447 182.8266 302.5390  1.85519827    19

Acompanhe GALILEO 5 (261) em tempo real com AllMySat

Download on the App Store